SL-8 DEB, 3038

Orbit data source: Space-Track

SL-8 DEB, 3038 is space debris in LEO originally from a launch on Mon, 15 Mar 1965 UTC launched from the Tyuratam Missile And Space Complex (TTMTR). Debris objects in space refer to the collection of defunct objects orbiting the Earth. Examples of debris include non-operational satellites, rocket bodies, and fragments generated from explosions, collisions, or faulty payload assembly.

Loading next visibility...
SL-8 DEB details
Identifier
3038, 1965-020EN
Orbit
LEO
Last TLE update20 hours ago
Origin
Flag of CISRVSN (CIS)
ManufacturerUnknown
MissionSpacecraft
Bus & MotorUnknown
MassUnknown
Launch date (UTC)
1965-03-15 (60 years ago)
Launch vehicleUnknown
Launch site
Tyuratam Missile And Space Complex (TTMTR)
Object type
Payload
Rocket body
Debris
Shape & HBRUnknown
Radar Cross SectionMedium (>0.1 m² and <1 m²)

Expand to show TLE details & history

TLE from 20 hours ago
0 SL-8 DEB
1 03038U 65020EN  24355.83994267  .00010830  00000-0  26674-2 0  9993
2 03038  56.1679 140.0253 0421992 258.3907  96.9435 14.10230713148771
Epoch: 2024-12-20T20:09Z
Definitive object data (Epoch: 2024-12-20T20:09:31.046Z)
Latitude0.00001°
Longitude107.74626°
Altitude909.241 km
Speed7.373 km/s
True Right ascension09h 20m 06s
True Declination0° 00' 00"
Sunlit
Object was in full shadow at TLE epoch
Visualization TLE readout
Latitude4.88333°
Longitude-78.43831°
Altitude823.896 km
Speed7.46 km/s
Apparent Right ascension23h 09m 51s
Apparent Declination-21° 23' 01"
Sunlit
Object is in daylight
Visualization observer readout
Local Sidereal Time14:46:43
Azimuth84.725° E
Elevation-40.661°
Doppler factor1
Orbital elements
Apogee altitude1,163.748 km
Perigee altitude552.998 km
Semi-major axis7,236.51 km
Eccentricity0.0421992
Inclination56.1679°
RAAN140.0253°
Arg. of periapsis258.3907°
True anomaly101.70779°
Mean anomaly96.9435°
Eccentric anomaly99.32935°
Mean motion3.52573 °/min
BSTAR0.0026674
Orbital period102.11 mins
Loading maneuver chart data...
Loading historical data...
Loading historical data...
Loading historical data...
Loading historical data...
Loading historical data...
Loading historical data...
Loading historical data...

SL-8 DEB Visibility forecast

Observer location: undefined°, undefined

Span
Click to sort rows by Start time (UTC) header in descending order
Start Az.
Max El. time (UTC)
Max El. Az.
Max El.
End time (UTC)
End Az.
11 mins2024-12-21 16:59:22.765Z321.217° NNW2024-12-21 17:05:22.765Z15.621° NNE22.416°2024-12-21 17:10:22.765Z62.636° ENE
12 mins2024-12-21 18:47:22.765Z324.264° NNW2024-12-21 18:53:22.765Z40.807° NE37.578°2024-12-21 18:59:22.765Z109.63° ESE
11 mins2024-12-21 20:34:22.765Z299.998° NW2024-12-21 20:39:22.765Z239.943° WSW34.981°2024-12-21 20:45:22.765Z165.929° S
12 mins2024-12-22 11:25:22.765Z201.669° SSW2024-12-22 11:30:22.765Z141.71° SSE40.182°2024-12-22 11:37:22.765Z52.352° ENE
12 mins2024-12-22 13:12:22.765Z263.084° W2024-12-22 13:17:22.765Z324.757° NNW34.865°2024-12-22 13:24:22.765Z37.873° NE
10 mins2024-12-22 15:01:22.765Z307.885° NW2024-12-22 15:05:22.765Z345.803° N21.655°2024-12-22 15:11:22.765Z40.284° NE
|